UAE14X OMDB-OEDF

Flight info

Callsign UAE14X
Flight time N/A
Altitude 26000
Route NABIX P699 ORMID M556 NARMI
Aircraft A359/H-SDE2E3GHIJ3J4J5LM1ORWXY/LB1D1

Departure

Time 2026-04-22 11:40
Airport Dubai International Airport (OMDB)

Arrival

Time N/A
Airport King Fahd International Airport (OEDF)
Time Latitude Longitude Altitude Speed Heading
2026-04-22 11:25 25.25366 55.35077 33 ft 0 kts 31°
2026-04-22 11:28 25.25352 55.35068 26 ft 2 kts 31°
2026-04-22 11:28 25.25338 55.35058 26 ft 2 kts 42°
2026-04-22 11:28 25.25324 55.35047 25 ft 3 kts 15°
2026-04-22 11:29 25.25306 55.35045 26 ft 3 kts 336°
2026-04-22 11:29 25.25291 55.35056 25 ft 1 kts 301°
2026-04-22 11:30 25.25292 55.35054 25 ft 2 kts 301°
2026-04-22 11:30 25.25308 55.35025 25 ft 7 kts 301°
2026-04-22 11:30 25.25344 55.34962 27 ft 12 kts 305°
2026-04-22 11:30 25.25423 55.34903 27 ft 15 kts 347°
2026-04-22 11:31 25.25494 55.34917 27 ft 16 kts 25°
2026-04-22 11:31 25.25605 55.34989 27 ft 0 kts 31°
2026-04-22 11:33 25.25611 55.34993 27 ft 3 kts 31°
2026-04-22 11:33 25.25642 55.35013 27 ft 7 kts 31°
2026-04-22 11:33 25.25696 55.35051 27 ft 11 kts 32°
2026-04-22 11:33 25.25742 55.35122 27 ft 12 kts 82°
2026-04-22 11:34 25.25775 55.35212 29 ft 13 kts 46°
2026-04-22 11:34 25.25859 55.35275 27 ft 16 kts 32°
2026-04-22 11:34 25.25957 55.35349 28 ft 18 kts 42°
2026-04-22 11:34 25.26006 55.35473 28 ft 18 kts 91°
2026-04-22 11:35 25.25959 55.35609 28 ft 20 kts 121°
2026-04-22 11:35 25.25879 55.35753 28 ft 24 kts 122°
2026-04-22 11:35 25.25787 55.35917 29 ft 27 kts 122°
2026-04-22 11:35 25.25680 55.36106 29 ft 30 kts 122°
2026-04-22 11:36 25.25575 55.36293 29 ft 28 kts 122°
2026-04-22 11:36 25.25468 55.36482 29 ft 31 kts 122°
2026-04-22 11:36 25.25357 55.36680 28 ft 32 kts 121°
2026-04-22 11:36 25.25241 55.36887 28 ft 32 kts 122°
2026-04-22 11:37 25.25179 55.36998 31 ft 11 kts 121°
2026-04-22 11:37 25.25136 55.37077 29 ft 13 kts 121°
2026-04-22 11:37 25.25078 55.37179 30 ft 18 kts 122°
2026-04-22 11:37 25.25002 55.37311 30 ft 22 kts 122°
2026-04-22 11:38 25.24913 55.37469 30 ft 26 kts 120°
2026-04-22 11:38 25.24811 55.37652 29 ft 29 kts 122°
2026-04-22 11:38 25.24752 55.37757 29 ft 7 kts 121°
2026-04-22 11:39 25.24720 55.37832 29 ft 14 kts 96°
2026-04-22 11:39 25.24779 55.37915 30 ft 16 kts 34°
2026-04-22 11:39 25.24864 55.37907 32 ft 12 kts 323°
2026-04-22 11:39 25.24912 55.37832 32 ft 9 kts 303°
2026-04-22 11:40 25.24959 55.37751 32 ft 33 kts 302°
2026-04-22 11:40 25.25255 55.37225 34 ft 126 kts 302°
2026-04-22 11:40 25.25866 55.36198 303 ft 181 kts 308°
2026-04-22 11:40 25.26555 55.34973 1303 ft 193 kts 307°
2026-04-22 11:41 25.27264 55.33666 1954 ft 202 kts 302°
2026-04-22 11:41 25.28014 55.32286 2165 ft 217 kts 301°
2026-04-22 11:41 25.28787 55.30830 2498 ft 225 kts 297°
2026-04-22 11:41 25.29319 55.29182 2990 ft 225 kts 279°
2026-04-22 11:42 25.29432 55.27444 3337 ft 235 kts 267°
2026-04-22 11:42 25.29325 55.25576 3592 ft 251 kts 262°
2026-04-22 11:42 25.29145 55.23631 4086 ft 256 kts 262°
2026-04-22 11:42 25.28944 55.21664 4672 ft 259 kts 262°
2026-04-22 11:43 25.28733 55.19685 5231 ft 261 kts 261°
2026-04-22 11:43 25.28513 55.17676 5741 ft 265 kts 261°
2026-04-22 11:43 25.28288 55.15646 6273 ft 268 kts 259°
2026-04-22 11:43 25.28059 55.13593 6795 ft 270 kts 260°
2026-04-22 11:44 25.27830 55.11535 7324 ft 271 kts 260°
2026-04-22 11:44 25.27598 55.09467 7894 ft 272 kts 260°
2026-04-22 11:44 25.27368 55.07414 8407 ft 274 kts 261°
2026-04-22 11:44 25.27132 55.05322 8937 ft 276 kts 261°
2026-04-22 11:45 25.26894 55.03207 9510 ft 277 kts 261°
2026-04-22 11:45 25.26655 55.01092 10042 ft 279 kts 261°
2026-04-22 11:45 25.26410 54.98925 10331 ft 291 kts 261°
2026-04-22 11:45 25.26151 54.96653 10530 ft 304 kts 261°
2026-04-22 11:46 25.25882 54.94287 10728 ft 317 kts 261°
2026-04-22 11:46 25.25603 54.91826 10924 ft 329 kts 261°
2026-04-22 11:46 25.25315 54.89294 11262 ft 335 kts 261°
2026-04-22 11:46 25.25025 54.86734 11677 ft 338 kts 261°
2026-04-22 11:47 25.24730 54.84145 12104 ft 341 kts 262°
2026-04-22 11:47 25.24433 54.81541 12554 ft 343 kts 262°
2026-04-22 11:47 25.24134 54.78923 12997 ft 345 kts 262°
2026-04-22 11:47 25.23832 54.76280 13440 ft 347 kts 262°
2026-04-22 11:48 25.23523 54.73591 13852 ft 349 kts 262°
2026-04-22 11:48 25.23217 54.70928 14274 ft 351 kts 262°
2026-04-22 11:48 25.22909 54.68249 14684 ft 352 kts 262°
2026-04-22 11:48 25.22599 54.65561 14938 ft 353 kts 262°
2026-04-22 11:49 25.22293 54.62916 14991 ft 353 kts 262°
2026-04-22 11:49 25.21981 54.60222 14995 ft 354 kts 262°
2026-04-22 11:49 25.21669 54.57522 14994 ft 354 kts 262°
2026-04-22 11:49 25.21369 54.54824 14992 ft 354 kts 263°
2026-04-22 11:50 25.21416 54.52107 14997 ft 356 kts 276°
2026-04-22 11:50 25.21883 54.49375 14995 ft 357 kts 281°
2026-04-22 11:50 25.22508 54.46751 14993 ft 358 kts 284°
2026-04-22 11:50 25.23215 54.44113 14993 ft 358 kts 285°
2026-04-22 11:51 25.23942 54.41474 14996 ft 359 kts 285°
2026-04-22 11:51 25.24657 54.38841 15001 ft 358 kts 284°
2026-04-22 11:51 25.25355 54.36204 14996 ft 357 kts 284°
2026-04-22 11:51 25.26035 54.33570 14999 ft 356 kts 283°
2026-04-22 11:52 25.26702 54.30938 14996 ft 355 kts 283°
2026-04-22 11:52 25.27373 54.28272 14999 ft 355 kts 283°
2026-04-22 11:52 25.28025 54.25641 14999 ft 355 kts 283°
2026-04-22 11:52 25.28665 54.23041 15001 ft 355 kts 283°
2026-04-22 11:53 25.29311 54.20408 15002 ft 355 kts 283°
2026-04-22 11:53 25.29958 54.17778 15001 ft 355 kts 283°
2026-04-22 11:53 25.30606 54.15145 15000 ft 355 kts 283°
2026-04-22 11:53 25.31254 54.12518 15000 ft 355 kts 283°
2026-04-22 11:54 25.31865 54.09875 15002 ft 354 kts 281°
2026-04-22 11:54 25.32424 54.07227 15001 ft 354 kts 281°
2026-04-22 11:54 25.32964 54.04572 15002 ft 354 kts 280°
2026-04-22 11:54 25.33503 54.01913 15001 ft 354 kts 281°
2026-04-22 11:55 25.34045 53.99262 15005 ft 354 kts 281°
2026-04-22 11:55 25.34596 53.96606 15004 ft 354 kts 281°
2026-04-22 11:55 25.35150 53.93956 15006 ft 354 kts 281°
2026-04-22 11:55 25.35709 53.91299 15008 ft 354 kts 281°
2026-04-22 11:56 25.36269 53.88645 15014 ft 354 kts 281°
2026-04-22 11:56 25.36826 53.86005 15005 ft 352 kts 281°
2026-04-22 11:56 25.37381 53.83378 15007 ft 351 kts 281°
2026-04-22 11:56 25.37935 53.80749 15009 ft 350 kts 281°
2026-04-22 11:57 25.38493 53.78096 15006 ft 350 kts 281°
2026-04-22 11:57 25.39045 53.75466 15008 ft 350 kts 281°
2026-04-22 11:57 25.39588 53.72880 15001 ft 350 kts 281°
2026-04-22 11:57 25.40138 53.70255 15006 ft 350 kts 281°
2026-04-22 11:58 25.40688 53.67629 15002 ft 350 kts 281°
2026-04-22 11:58 25.41236 53.65010 15011 ft 350 kts 281°
2026-04-22 11:58 25.41793 53.62348 15008 ft 350 kts 281°
2026-04-22 11:58 25.42334 53.59757 15007 ft 350 kts 281°
2026-04-22 11:59 25.42883 53.57134 15007 ft 350 kts 281°
2026-04-22 11:59 25.43434 53.54509 15008 ft 350 kts 281°
2026-04-22 11:59 25.43980 53.51888 15006 ft 350 kts 281°
2026-04-22 11:59 25.44524 53.49263 15007 ft 350 kts 280°
2026-04-22 12:00 25.45068 53.46638 15013 ft 350 kts 280°
2026-04-22 12:00 25.45611 53.44017 15011 ft 350 kts 280°
2026-04-22 12:00 25.46162 53.41355 15013 ft 350 kts 280°
2026-04-22 12:00 25.46706 53.38732 15021 ft 350 kts 281°
2026-04-22 12:01 25.47247 53.36116 15018 ft 349 kts 280°
2026-04-22 12:01 25.47788 53.33506 15016 ft 348 kts 280°
2026-04-22 12:01 25.48327 53.30899 15019 ft 348 kts 280°
2026-04-22 12:01 25.48866 53.28285 15017 ft 347 kts 280°
2026-04-22 12:02 25.49404 53.25678 15018 ft 347 kts 280°
2026-04-22 12:02 25.49942 53.23074 15018 ft 347 kts 280°
2026-04-22 12:02 25.50481 53.20467 15019 ft 347 kts 280°
2026-04-22 12:02 25.51016 53.17863 15017 ft 347 kts 280°
2026-04-22 12:03 25.51549 53.15252 15015 ft 347 kts 280°
2026-04-22 12:03 25.52074 53.12680 15017 ft 347 kts 280°
2026-04-22 12:03 25.52605 53.10079 15018 ft 347 kts 280°
2026-04-22 12:03 25.53138 53.07468 15019 ft 347 kts 280°
2026-04-22 12:04 25.53677 53.04828 15025 ft 347 kts 280°
2026-04-22 12:04 25.54201 53.02256 15025 ft 347 kts 280°
2026-04-22 12:04 25.54734 52.99642 15024 ft 347 kts 280°
2026-04-22 12:04 25.55266 52.97035 15025 ft 347 kts 280°
2026-04-22 12:05 25.55796 52.94428 15027 ft 347 kts 280°
2026-04-22 12:05 25.56423 52.91846 15024 ft 349 kts 286°
2026-04-22 12:05 25.57357 52.89360 15031 ft 351 kts 291°
2026-04-22 12:05 25.58430 52.86931 15027 ft 351 kts 293°
2026-04-22 12:06 25.59565 52.84539 15026 ft 350 kts 294°
2026-04-22 12:06 25.60728 52.82170 15028 ft 350 kts 295°
2026-04-22 12:06 25.61898 52.79814 15021 ft 350 kts 295°
2026-04-22 12:06 25.63072 52.77448 15028 ft 350 kts 295°
2026-04-22 12:07 25.64239 52.75081 15031 ft 350 kts 294°
2026-04-22 12:07 25.65414 52.72685 15027 ft 350 kts 294°
2026-04-22 12:07 25.66559 52.70340 15028 ft 350 kts 294°
2026-04-22 12:07 25.67716 52.67962 15024 ft 350 kts 294°
2026-04-22 12:08 25.68873 52.65582 15029 ft 350 kts 294°
2026-04-22 12:08 25.70025 52.63210 15028 ft 350 kts 294°
2026-04-22 12:08 25.71178 52.60834 15030 ft 350 kts 294°
2026-04-22 12:08 25.72332 52.58457 15025 ft 350 kts 294°
2026-04-22 12:09 25.73484 52.56081 15036 ft 350 kts 294°
2026-04-22 12:09 25.74638 52.53701 15031 ft 350 kts 294°
2026-04-22 12:09 25.75794 52.51317 15038 ft 350 kts 294°
2026-04-22 12:09 25.76944 52.48938 15033 ft 351 kts 294°
2026-04-22 12:10 25.78071 52.46542 15039 ft 351 kts 293°
2026-04-22 12:10 25.79187 52.44128 15039 ft 351 kts 293°
2026-04-22 12:10 25.80295 52.41717 15033 ft 351 kts 292°
2026-04-22 12:10 25.81405 52.39303 15030 ft 351 kts 293°
2026-04-22 12:11 25.82513 52.36900 15037 ft 351 kts 293°
2026-04-22 12:11 25.83630 52.34484 15037 ft 351 kts 293°
2026-04-22 12:11 25.84747 52.32075 15042 ft 351 kts 293°
2026-04-22 12:11 25.85863 52.29669 15034 ft 351 kts 293°
2026-04-22 12:12 25.87135 52.27335 15045 ft 355 kts 301°
2026-04-22 12:12 25.88672 52.25178 15037 ft 357 kts 305°
2026-04-22 12:12 25.90299 52.23090 15036 ft 358 kts 307°
2026-04-22 12:12 25.91981 52.21036 15038 ft 359 kts 308°
2026-04-22 12:13 25.93122 52.19671 15033 ft 359 kts 308°
2026-04-22 12:13 25.94829 52.17642 15057 ft 359 kts 308°
2026-04-22 12:13 25.96538 52.15609 15051 ft 359 kts 308°
2026-04-22 12:13 25.98239 52.13576 15040 ft 359 kts 308°
2026-04-22 12:14 25.99932 52.11542 15039 ft 359 kts 308°
2026-04-22 12:14 26.01621 52.09504 15041 ft 359 kts 308°
2026-04-22 12:14 26.03313 52.07457 15057 ft 359 kts 308°
2026-04-22 12:14 26.05003 52.05410 15040 ft 359 kts 308°
2026-04-22 12:15 26.06695 52.03368 15043 ft 358 kts 308°
2026-04-22 12:15 26.08376 52.01334 15044 ft 357 kts 308°
2026-04-22 12:15 26.10053 51.99299 15051 ft 357 kts 308°
2026-04-22 12:15 26.11726 51.97268 15051 ft 356 kts 308°
2026-04-22 12:16 26.13404 51.95230 15050 ft 356 kts 307°
2026-04-22 12:16 26.15076 51.93200 15051 ft 356 kts 307°
2026-04-22 12:16 26.16749 51.91168 15050 ft 356 kts 307°
2026-04-22 12:16 26.18417 51.89142 15054 ft 356 kts 308°
2026-04-22 12:17 26.20093 51.87106 15056 ft 356 kts 308°
2026-04-22 12:17 26.21766 51.85072 15053 ft 356 kts 308°
2026-04-22 12:17 26.23437 51.83039 15069 ft 356 kts 307°
2026-04-22 12:17 26.24953 51.80885 15059 ft 351 kts 298°
2026-04-22 12:18 26.26201 51.78556 15054 ft 349 kts 295°
2026-04-22 12:18 26.27347 51.76178 15056 ft 349 kts 293°
2026-04-22 12:18 26.28437 51.73772 15029 ft 348 kts 292°
2026-04-22 12:18 26.29505 51.71345 14866 ft 347 kts 291°
2026-04-22 12:19 26.30558 51.68930 14840 ft 347 kts 291°
2026-04-22 12:19 26.31614 51.66512 14839 ft 347 kts 291°
2026-04-22 12:19 26.32681 51.64093 14839 ft 347 kts 292°
2026-04-22 12:19 26.33749 51.61685 14839 ft 347 kts 292°
2026-04-22 12:20 26.34823 51.59269 14844 ft 347 kts 292°
2026-04-22 12:20 26.35898 51.56854 14839 ft 347 kts 292°
2026-04-22 12:20 26.36970 51.54447 14845 ft 347 kts 292°
2026-04-22 12:20 26.37929 51.51996 14836 ft 344 kts 287°
2026-04-22 12:21 26.38790 51.49503 14845 ft 344 kts 286°
2026-04-22 12:21 26.39615 51.47000 14840 ft 344 kts 285°
2026-04-22 12:21 26.40419 51.44492 14842 ft 344 kts 285°
2026-04-22 12:21 26.41215 51.41981 14841 ft 343 kts 285°
2026-04-22 12:22 26.42007 51.39474 14842 ft 343 kts 285°
2026-04-22 12:22 26.42804 51.36958 14845 ft 343 kts 285°
2026-04-22 12:22 26.43605 51.34448 14842 ft 343 kts 285°
2026-04-22 12:22 26.44404 51.31946 14841 ft 343 kts 285°
2026-04-22 12:23 26.45207 51.29431 14843 ft 343 kts 285°
2026-04-22 12:23 26.46019 51.26883 14839 ft 343 kts 285°
2026-04-22 12:23 26.46823 51.24377 14842 ft 343 kts 285°
2026-04-22 12:23 26.47624 51.21872 14841 ft 343 kts 285°
2026-04-22 12:24 26.48412 51.19396 14842 ft 343 kts 285°
2026-04-22 12:24 26.49210 51.16888 14843 ft 343 kts 285°
2026-04-22 12:24 26.50020 51.14337 14853 ft 342 kts 285°
2026-04-22 12:24 26.50813 51.11843 14847 ft 341 kts 285°
2026-04-22 12:25 26.51605 51.09352 14846 ft 340 kts 285°
2026-04-22 12:25 26.52385 51.06896 14843 ft 340 kts 285°
2026-04-22 12:25 26.53173 51.04414 14845 ft 340 kts 285°
2026-04-22 12:25 26.53972 51.01895 14841 ft 340 kts 285°
2026-04-22 12:26 26.54759 50.99405 14848 ft 340 kts 285°
2026-04-22 12:26 26.55338 50.96901 14849 ft 336 kts 276°
2026-04-22 12:26 26.55459 50.94313 14849 ft 332 kts 264°
2026-04-22 12:26 26.55027 50.91789 14823 ft 330 kts 251°
2026-04-22 12:27 26.54057 50.89476 14323 ft 332 kts 238°
2026-04-22 12:27 26.52545 50.87538 13845 ft 331 kts 225°
2026-04-22 12:27 26.50786 50.85885 13264 ft 330 kts 220°
2026-04-22 12:27 26.48946 50.84355 12646 ft 330 kts 218°
2026-04-22 12:28 26.47075 50.82875 12111 ft 328 kts 217°
2026-04-22 12:28 26.45217 50.81418 11877 ft 327 kts 217°
2026-04-22 12:28 26.43359 50.79943 11835 ft 328 kts 217°
2026-04-22 12:28 26.41508 50.78451 11834 ft 328 kts 218°
2026-04-22 12:29 26.39660 50.76943 11833 ft 328 kts 218°
2026-04-22 12:29 26.37828 50.75437 11832 ft 328 kts 218°
2026-04-22 12:29 26.35990 50.73918 11827 ft 328 kts 218°
2026-04-22 12:29 26.34163 50.72407 11827 ft 328 kts 218°
2026-04-22 12:30 26.30506 50.69385 11828 ft 326 kts 218°
2026-04-22 12:30 26.28811 50.67712 11828 ft 325 kts 227°
2026-04-22 12:30 26.27479 50.65688 11830 ft 325 kts 240°
2026-04-22 12:31 26.26660 50.63341 11830 ft 327 kts 255°
2026-04-22 12:31 26.26471 50.60823 11840 ft 329 kts 270°
2026-04-22 12:31 26.26736 50.58282 11837 ft 330 kts 275°
2026-04-22 12:31 26.27079 50.55747 11837 ft 331 kts 275°
2026-04-22 12:32 26.27419 50.53215 11833 ft 330 kts 275°
2026-04-22 12:32 26.28079 50.48183 11836 ft 330 kts 275°
2026-04-22 12:32 26.28408 50.45653 11828 ft 330 kts 275°
2026-04-22 12:33 26.28734 50.43131 11826 ft 329 kts 275°
2026-04-22 12:33 26.29059 50.40606 11817 ft 329 kts 275°
2026-04-22 12:33 26.29384 50.38080 11815 ft 329 kts 275°
2026-04-22 12:33 26.29708 50.35551 11812 ft 329 kts 275°
2026-04-22 12:34 26.29991 50.33031 11809 ft 328 kts 271°
2026-04-22 12:34 26.29983 50.30497 11810 ft 326 kts 265°
2026-04-22 12:34 26.29865 50.27975 11803 ft 326 kts 264°
2026-04-22 12:34 26.29738 50.25448 11801 ft 326 kts 264°
2026-04-22 12:35 26.29614 50.22931 11802 ft 326 kts 264°
2026-04-22 12:35 26.29494 50.20414 11726 ft 323 kts 264°
2026-04-22 12:35 26.29376 50.17930 11134 ft 321 kts 264°
2026-04-22 12:35 26.29255 50.15420 10404 ft 327 kts 264°
2026-04-22 12:36 26.29132 50.12877 9717 ft 331 kts 264°
2026-04-22 12:36 26.29012 50.10344 9295 ft 323 kts 264°
2026-04-22 12:36 26.28897 50.07885 9076 ft 310 kts 264°
2026-04-22 12:36 26.28786 50.05530 8864 ft 298 kts 264°
2026-04-22 12:37 26.28682 50.03299 8682 ft 287 kts 264°
2026-04-22 12:37 26.28582 50.01109 8358 ft 281 kts 264°
2026-04-22 12:37 26.28481 49.98909 7939 ft 280 kts 264°
2026-04-22 12:37 26.28387 49.96777 7525 ft 279 kts 264°
2026-04-22 12:38 26.28291 49.94595 7091 ft 278 kts 265°
2026-04-22 12:38 26.28179 49.92466 6646 ft 280 kts 264°
2026-04-22 12:38 26.28064 49.90309 6265 ft 279 kts 264°
2026-04-22 12:38 26.27932 49.88128 5922 ft 277 kts 264°
2026-04-22 12:39 26.27787 49.86024 5834 ft 276 kts 264°
2026-04-22 12:39 26.27501 49.81770 5829 ft 275 kts 264°
2026-04-22 12:39 26.27356 49.79484 5828 ft 273 kts 264°
2026-04-22 12:40 26.27226 49.77371 5829 ft 273 kts 264°
2026-04-22 12:40 26.27083 49.75262 5832 ft 274 kts 264°
2026-04-22 12:40 26.26928 49.73162 5821 ft 267 kts 264°
2026-04-22 12:40 26.26769 49.71119 5833 ft 263 kts 264°
2026-04-22 12:41 26.26615 49.69097 5836 ft 262 kts 264°
2026-04-22 12:41 26.26457 49.67072 5839 ft 262 kts 264°
2026-04-22 12:41 26.26301 49.65056 5832 ft 262 kts 264°